[[{"header":{"parameterUnit":"m.s-1","parameterCategory":1,"la1":30.2991,"la2":30.254,"lo1":-89.0895,"lo2":-89.0444,"dy":0.0017,"dx":0.0017,"nx":28,"ny":28,"refTime":"2026-02-03T03:00:00:Z","depth":0,"parameterNumber":2,"parameterNumberName":"U-component_of_WINDS"},"data":[0,0,0,0,0,0,0,0,0,0,0,0,0,0,0,0,0,0,0,0,0,0,0,0,0,0,0,0,0,0,0,0,0,0,0,0,0,0,0,0,0,0,0,0,0,0,0,0,0,0,0,0,0,0,0,0,0,0,1.3157,1.3157,0,1.3083,1.3082,1.3081,1.3008,1.3007,1.3006,1.3005,1.2931,1.293,1.2929,0,0,0,0,0,0,0,0,0,0,0,0,0,1.3239,1.3238,1.3158,1.3157,1.3156,1.3083,1.3082,1.3081,1.3008,1.3007,1.3006,1.3005,1.2932,1.2931,1.2929,0,0,0,0,0,0,0,0,0,0,0,0,0,1.3188,1.3238,1.3158,1.3111,1.3106,1.3083,1.3082,1.3081,1.3008,1.3007,1.3006,1.3004,1.2932,1.2931,1.2929,1.2948,0,0,1.2924,1.2924,0,0,0,0,0,0,0,0,1.3191,1.3185,1.3118,1.3114,1.3108,1.3053,1.3084,1.3036,1.3009,1.3045,1.3005,1.3003,1.2973,1.2968,1.2957,1.2945,1.2942,1.2924,1.2923,1.2922,1.2922,0,0,0,0,0,0,0,1.3195,1.3188,1.3128,1.3118,1.3111,1.3094,1.3085,1.3074,1.3019,1.3042,1.3037,1.3029,1.297,1.2959,1.2955,1.294,1.2924,1.2923,1.2922,1.2921,1.294,1.2941,0,0,0,0,0,0,1.3205,1.3192,1.313,1.3126,1.3147,1.3094,1.3084,1.3072,1.3018,1.3009,1.303,1.3025,1.2963,1.2957,1.2952,1.2971,1.2922,1.2921,1.292,1.2938,1.294,1.2941,0,0,0,0,0,0,1.3207,1.3201,1.3133,1.3157,1.3147,1.3094,1.3082,1.3072,1.306,1.3009,1.2999,1.3029,1.2961,1.2955,1.295,1.2967,1.292,1.2919,1.2936,1.2939,1.2941,1.3009,0,0,0,0,0,0,1.321,1.3202,1.3208,1.3158,1.3146,1.3131,1.3083,1.3071,1.3058,1.3051,1.3005,1.2996,1.296,1.2952,1.2948,1.2964,1.2918,1.2935,1.2937,1.294,1.3005,1.3013,1.302,0,0,0,0,0,1.3213,1.3231,1.3209,1.3202,1.3153,1.3132,1.3126,1.3082,1.3059,1.3065,1.3032,1.2998,1.2966,1.2952,1.2947,1.2963,1.2933,1.2937,1.294,1.3001,1.3011,1.302,0,0,0,0,0,0,1.3285,1.3223,1.3198,1.3199,1.3172,1.312,1.3126,1.3095,1.3074,1.3068,1.3016,1.3007,1.3008,1.2985,1.2971,1.2979,1.2945,1.2947,1.2994,1.3003,1.301,1.3016,1.2916,0,0,0,0,0,1.3301,1.3289,1.3236,1.3242,1.3229,1.3181,1.317,1.3139,1.3108,1.3097,1.3063,1.3036,1.3019,1.301,1.2992,1.3001,1.299,1.3009,1.3017,1.3024,1.3026,1.303,1.3038,1.2952,1.2952,1.2952,0,0,1.3334,1.3298,1.3294,1.3256,1.323,1.322,1.3171,1.3162,1.3154,1.3095,1.3088,1.3063,1.3029,1.3031,1.303,1.3012,1.3048,1.3028,1.3034,1.3033,1.3034,1.3042,1.3049,1.2954,1.2954,1.2954,0,0,1.3388,1.336,1.3362,1.3338,1.33,1.3267,1.3268,1.3221,1.3202,1.3194,1.315,1.314,1.3113,1.309,1.3075,1.3121,1.3089,1.3117,1.3157,1.3161,1.3168,1.3174,1.319,1.3197,1.312,1.312,1.312,0,1.3434,1.3415,1.3368,1.3361,1.3346,1.3291,1.3294,1.3273,1.3232,1.3223,1.3203,1.3167,1.3141,1.3137,1.3148,1.3138,1.3137,1.3122,1.3171,1.3176,1.318,1.3196,1.3202,1.3124,1.3123,1.3123,1.3123,0,1.3473,1.3461,1.3468,1.3429,1.3414,1.3412,1.3365,1.3356,1.3326,1.3296,1.3289,1.3255,1.3229,1.3226,1.3197,1.3218,1.3208,1.318,1.3145,1.3193,1.3206,1.3212,1.3129,1.3128,1.3127,1.3126,0,0,1.3571,1.3505,1.3508,1.349,1.3444,1.3434,1.343,1.3404,1.3398,1.3371,1.3367,1.3345,1.3319,1.3302,1.3271,1.3274,1.3313,1.3245,1.3244,1.3259,1.3334,1.3355,1.3362,1.3291,1.3292,1.3292,1.3336,0,1.3617,1.3605,1.3563,1.3564,1.3553,1.3501,1.3498,1.347,1.3442,1.3429,1.3398,1.3383,1.335,1.3339,1.334,1.3308,1.3327,1.3304,1.3287,1.3287,1.3297,1.3369,1.3391,1.3435,1.3341,1.3342,1.3343,0,1.367,1.3646,1.3646,1.3601,1.3595,1.3592,1.3565,1.3553,1.352,1.35,1.3481,1.3445,1.3439,1.3406,1.3397,1.3382,1.3373,1.3356,1.3356,1.3353,1.3318,1.3368,1.3447,1.3454,1.3351,1.335,1.3349,0,1.3741,1.3709,1.3705,1.369,1.3638,1.3637,1.3615,1.3581,1.3569,1.3545,1.3536,1.3513,1.35,1.3483,1.3443,1.3423,1.3438,1.3402,1.3421,1.3422,1.3426,1.3427,1.3506,1.3421,1.3421,1.3421,1.3421,0,1.3797,1.3799,1.3736,1.3733,1.3734,1.3686,1.3688,1.3662,1.3632,1.3624,1.3579,1.3572,1.3519,1.3507,1.3475,1.3472,1.3467,1.345,1.3442,1.3454,1.3456,1.3447,1.3443,1.3422,1.3422,1.3422,1.3421,0,1.3876,1.3834,1.3826,1.3776,1.3764,1.3767,1.3725,1.3721,1.369,1.3681,1.3676,1.3628,1.3611,1.3568,1.3541,1.3519,1.3525,1.3509,1.3536,1.353,1.3552,1.355,1.3627,1.3635,1.3546,1.3547,1.3548,0,1.3915,1.3915,1.3866,1.3856,1.3836,1.3823,1.3809,1.3762,1.375,1.3713,1.3714,1.3693,1.3674,1.3649,1.3612,1.3591,1.3575,1.3603,1.3571,1.3584,1.3575,1.3575,1.3575,1.361,1.3611,1.3612,1.3613,0,1.3988,1.3967,1.3948,1.3923,1.3908,1.3887,1.3862,1.3858,1.3804,1.3793,1.3775,1.376,1.3732,1.3712,1.3685,1.3663,1.363,1.3623,1.3627,1.3639,1.3654,1.3646,1.3555,1.3622,1.3621,1.362,1.362,1.362,1.4047,1.4045,1.401,1.3992,1.3968,1.3947,1.394,1.3909,1.3892,1.3865,1.3838,1.3823,1.3791,1.3751,1.3731,1.3719,1.3702,1.3706,1.3707,1.3709,1.3715,1.3657,1.3714,1.3714,1.3713,1.3713,1.3713,0,1.4118,1.4093,1.4076,1.4043,1.4029,1.3998,1.3969,1.396,1.3947,1.3919,1.3901,1.3881,1.3861,1.3823,1.38,1.3798,1.3782,1.3794,1.3793,1.3789,1.3732,1.3731,1.3807,1.3807,1.3807,1.3807,1.3807,1.3807,1.4153,1.4147,1.4123,1.4106,1.408,1.4065,1.4051,1.4031,1.4009,1.3988,1.3971,1.3946,1.3914,1.3889,1.387,1.3859,1.3853,1.387,1.3854,1.3802,1.3793,1.3784,1.3783,1.3869,1.3869,1.3912,1.3912,1.3912]},{"header":{"parameterUnit":"m.s-1","parameterCategory":1,"la1":30.2991,"la2":30.254,"lo1":-89.0895,"lo2":-89.0444,"dy":0.0017,"dx":0.0017,"nx":28,"ny":28,"refTime":"2026-02-03T03:00:00:Z","depth":0,"parameterNumber":3,"parameterNumberName":"V-component_of_WINDS"},"data":[0,0,0,0,0,0,0,0,0,0,0,0,0,0,0,0,0,0,0,0,0,0,0,0,0,0,0,0,0,0,0,0,0,0,0,0,0,0,0,0,0,0,0,0,0,0,0,0,0,0,0,0,0,0,0,0,0,0,3.4879,3.4879,0,3.4877,3.4877,3.4877,3.4846,3.4846,3.4845,3.4844,3.4843,3.4843,3.4844,0,0,0,0,0,0,0,0,0,0,0,0,0,3.4855,3.4855,3.4879,3.4879,3.4879,3.4877,3.4877,3.4877,3.4847,3.4846,3.4845,3.4844,3.4842,3.4843,3.4844,0,0,0,0,0,0,0,0,0,0,0,0,0,3.486,3.4856,3.4879,3.4863,3.4862,3.4877,3.4877,3.4877,3.4847,3.4846,3.4844,3.4843,3.4842,3.4843,3.4844,3.4874,0,0,3.4847,3.4848,0,0,0,0,0,0,0,0,3.486,3.4861,3.4865,3.4864,3.4863,3.4861,3.4868,3.4876,3.4847,3.4853,3.4844,3.4843,3.485,3.485,3.4852,3.4874,3.4874,3.4847,3.4848,3.4849,3.4849,0,0,0,0,0,0,0,3.486,3.4861,3.4878,3.4866,3.4864,3.4856,3.4856,3.4869,3.4858,3.4852,3.485,3.485,3.4849,3.4851,3.4852,3.4874,3.4847,3.4848,3.4849,3.4849,3.4919,3.492,0,0,0,0,0,0,3.4861,3.4861,3.4878,3.4878,3.4858,3.4858,3.4857,3.4863,3.4857,3.4856,3.4851,3.4849,3.485,3.4851,3.4852,3.4886,3.4849,3.4849,3.485,3.4918,3.4919,3.492,0,0,0,0,0,0,3.4861,3.4863,3.4878,3.4869,3.487,3.4859,3.4866,3.4863,3.4866,3.4857,3.4854,3.4856,3.4849,3.485,3.4868,3.4885,3.485,3.4851,3.4916,3.4918,3.492,3.4955,0,0,0,0,0,0,3.4861,3.4863,3.4875,3.4869,3.4871,3.4895,3.4867,3.4864,3.4868,3.4864,3.4861,3.4859,3.4848,3.4867,3.4869,3.4886,3.4852,3.4915,3.4917,3.4919,3.4952,3.4958,3.4962,0,0,0,0,0,3.486,3.4885,3.4876,3.4878,3.4885,3.4896,3.4897,3.4884,3.4869,3.488,3.4874,3.4859,3.4883,3.4869,3.4872,3.4889,3.4913,3.4916,3.4919,3.495,3.4956,3.4962,0,0,0,0,0,0,3.4893,3.4884,3.4874,3.4898,3.4898,3.4891,3.4905,3.4892,3.4897,3.4893,3.4877,3.4877,3.4897,3.4895,3.4879,3.4917,3.4896,3.4899,3.4918,3.4924,3.4929,3.493,3.4853,0,0,0,0,0,3.4903,3.4913,3.4905,3.4927,3.4927,3.4916,3.4921,3.4911,3.491,3.491,3.4906,3.4906,3.4913,3.4919,3.4925,3.4951,3.495,3.4964,3.4969,3.4974,3.4977,3.499,3.4996,3.4929,3.4929,3.4929,0,0,3.4924,3.4921,3.4928,3.4933,3.4932,3.4943,3.4916,3.4929,3.4936,3.4912,3.4929,3.4925,3.4924,3.4947,3.4956,3.4945,3.4995,3.4977,3.4981,3.4982,3.4994,3.5,3.5006,3.4931,3.4931,3.4931,0,0,3.4968,3.4967,3.4984,3.4984,3.4982,3.4974,3.4979,3.4974,3.497,3.4987,3.4968,3.4977,3.499,3.499,3.4992,3.5035,3.5021,3.5037,3.5064,3.5077,3.5082,3.5087,3.5102,3.5108,3.504,3.504,3.504,0,3.4995,3.501,3.4995,3.5009,3.5011,3.4989,3.5007,3.5007,3.5008,3.501,3.4998,3.5014,3.5011,3.5033,3.5043,3.5045,3.505,3.5038,3.5083,3.5087,3.5091,3.5106,3.5111,3.5042,3.5042,3.5042,3.5042,0,3.5043,3.5053,3.5068,3.5069,3.5073,3.5089,3.5076,3.5082,3.5071,3.5065,3.5081,3.5078,3.5083,3.5087,3.5077,3.5107,3.51,3.5086,3.5064,3.51,3.5113,3.5118,3.5045,3.5044,3.5044,3.5043,0,0,3.5109,3.51,3.5106,3.5106,3.5102,3.511,3.5124,3.5129,3.5134,3.5135,3.5146,3.5158,3.5144,3.5146,3.5135,3.5147,3.518,3.513,3.513,3.514,3.5213,3.5224,3.5231,3.5171,3.5172,3.5172,3.5213,0,3.5151,3.5175,3.5162,3.5187,3.5197,3.5175,3.5187,3.5186,3.518,3.5187,3.518,3.5188,3.5169,3.517,3.5181,3.5174,3.5195,3.5171,3.5181,3.5182,3.5183,3.5238,3.525,3.5289,3.5218,3.5219,3.522,0,3.5204,3.5207,3.5233,3.5227,3.523,3.5242,3.5244,3.5251,3.5249,3.5244,3.5246,3.5232,3.5245,3.5223,3.5241,3.5225,3.5228,3.5225,3.5227,3.5227,3.5203,3.524,3.5301,3.5307,3.5228,3.5227,3.5226,0,3.525,3.526,3.5277,3.5277,3.527,3.5279,3.5276,3.5273,3.5276,3.5278,3.528,3.5284,3.5287,3.529,3.5277,3.5263,3.5297,3.5274,3.5293,3.5293,3.5302,3.5301,3.5364,3.5303,3.5303,3.5303,3.5303,0,3.5299,3.5316,3.5297,3.5308,3.5326,3.531,3.5329,3.5324,3.5321,3.533,3.5311,3.532,3.5303,3.531,3.5301,3.5317,3.5318,3.5314,3.5311,3.5316,3.5316,3.5318,3.5315,3.5305,3.5304,3.5304,3.5304,0,3.5353,3.5341,3.5359,3.535,3.5348,3.5362,3.5355,3.5364,3.5356,3.5367,3.5369,3.5357,3.5364,3.5352,3.5358,3.5352,3.5374,3.5367,3.5375,3.5373,3.5393,3.5391,3.5459,3.5467,3.5401,3.5401,3.5402,0,3.5386,3.5398,3.5391,3.5395,3.5393,3.5401,3.5404,3.5388,3.5392,3.539,3.54,3.5405,3.5409,3.5422,3.5413,3.5418,3.5411,3.5434,3.5411,3.5415,3.5411,3.5411,3.5412,3.5439,3.544,3.5441,3.5441,0,3.5444,3.5438,3.5443,3.5445,3.5449,3.5451,3.5451,3.5456,3.5439,3.5444,3.5451,3.5454,3.546,3.5466,3.5468,3.5465,3.545,3.5448,3.5453,3.5458,3.5462,3.546,3.5388,3.5447,3.5446,3.5446,3.5446,3.5445,3.5489,3.5499,3.5495,3.5501,3.5499,3.5499,3.5507,3.55,3.5505,3.5508,3.5499,3.5508,3.5505,3.5506,3.5504,3.5511,3.5501,3.5508,3.551,3.5512,3.5515,3.546,3.5512,3.5511,3.5511,3.5511,3.5511,0,3.5547,3.5543,3.5548,3.5549,3.5553,3.5538,3.5537,3.5542,3.555,3.5548,3.5552,3.556,3.5565,3.5557,3.556,3.5568,3.5561,3.5569,3.5569,3.5568,3.5524,3.5519,3.5574,3.5574,3.5574,3.5574,3.5574,3.5574,3.5577,3.5593,3.5586,3.56,3.5596,3.5604,3.5605,3.5605,3.5603,3.5613,3.5617,3.5611,3.5606,3.5609,3.5613,3.5611,3.5613,3.5624,3.5619,3.5578,3.5571,3.5566,3.5561,3.5624,3.5624,3.5663,3.5663,3.5664]}]]